Location: P�rn�nmaa
(61.1833°N, 23.0000°E)
Time: 19:19:10
(UTC+00:00)

YAOGAN 1 - Pass Details

Date: 08 December 2019
Orbit: 619 x 621 km, 98.0° (Epoch: 17 January)

Event Time Altitude Azimuth Distance (km) Brightness Sun altitude
Rises 15:25:55 0° 132° (SE) 2,898 5.7 -13.6°
Reaches altitude 10° 15:28:13 10° 123° (ESE) 1,995 4.8 -13.8°
Maximum altitude 15:32:10 35° 58° (ENE) 1,009 3.1 -14.3°
Drops below altitude 10° 15:36:08 10° 353° (N) 2,006 5.0 -14.7°
Sets 15:38:27 0° 345° (NNW) 2,916 6.0 -15.0°
